Location: Seattle
(47.6064°N, 122.3308°W)
Time: 10:32:39
(UTC-07:00)

FO-99 - Visible Passes

Search period start: 28 March 2023 00:00
Search period end: 07 April 2023 00:00
Orbit: 423 x 444 km, 97.1° (Epoch: 27 March)

Date Brightness Start Highest point End Pass type
(mag) Time Alt. Az. Time Alt. Az. Time Alt. Az.
29 Mar ? 20:41:45 10° SSW 20:44:31 24° W 20:47:19 10° NW visible
31 Mar ? 20:54:17 10° SW 20:56:36 17° W 20:58:55 10° NW visible
01 Apr ? 20:12:48 10° S 20:16:04 54° W 20:19:22 10° NNW visible
02 Apr ? 21:06:46 10° WSW 21:08:21 13° W 21:09:55 10° WNW visible
03 Apr ? 20:24:28 10° SSW 20:27:35 37° W 20:30:43 10° NNW visible
05 Apr ? 20:35:53 10° SSW 20:38:45 27° W 20:41:39 10° NW visible
